Regional Weather Roundup
Issued by NWS Green Bay, WI

Home | Current Version | Previous Version | Graphics & Text | Print | Product List | Glossary Off
Versions: 1 2 3 4 5 6 7 8 9 10 11 12 13 14 15 16 17 18 19 20 21 22 23 24 25 26 27 28 29 30 31 32 33 34 35 36 37 38 39 40 41 42 43 44 45 46 47 48 49 50

404
ASUS43 KGRB 181300
RWRGRB

NORTH-CENTRAL AND NORTHEAST WISCONSIN REGIONAL WEATHER ROUNDUP
NATIONAL WEATHER SERVICE GREEN BAY WI
700 AM CST WED JAN 18 2017

WIZ005-009-010>012-018-019-181400-
NORTH CENTRAL WISCONSIN

CITY           SKY/WX    TMP DP  RH WIND       PRES   REMARKS
IRONWOOD       CLOUDY    31  25  78 S13       29.80F
MANITOWISH WTR NOT AVBL
ARBOR VITAE    NOT AVBL
EAGLE RIVER    NOT AVBL
LAND O LAKES   NOT AVBL
RHINELANDER    CLOUDY    29  28  96 SW14      29.90S
PHILLIPS       CLOUDY   N/A N/A N/A SW6       29.90S
ANTIGO         NOT AVBL
TOMAHAWK       NOT AVBL
MERRILL        CLOUDY    29  29 100 CALM        N/A
$$

WIZ013-073-181400-
NORTHEAST WISCONSIN

CITY           SKY/WX    TMP DP  RH WIND       PRES   REMARKS
IRON MOUNTAIN  CLOUDY    13   8  81 CALM      29.88S
MARINETTE      NOT AVBL
$$

WIZ017-030-035>037-045-181400-
CENTRAL WISCONSIN

CITY           SKY/WX    TMP DP  RH WIND       PRES   REMARKS
MEDFORD        NOT AVBL
WAUSAU         CLOUDY    29  28  96 SW12      29.96F
MOSINEE        FOG       30  30 100 SW13      29.99S VSB 3/4
MARSHFIELD     CLOUDY    29  28  96 SW10      29.97S
WISC RAPIDS    CLOUDY    31  31 100 SW9       30.03R
STEVENS POINT  NOT AVBL
WAUPACA        NOT AVBL
SHAWANO        NOT AVBL
CLINTONVILLE   CLOUDY    32  32 100 SW9       30.01R FOG
WAUTOMA        CLOUDY    32  32 100 SW9       30.04R FOG
$$

WIZ038-039-048-051-181400-
FOX VALLEY

CITY           SKY/WX    TMP DP  RH WIND       PRES   REMARKS
NWS GREEN BAY  CLOUDY    34  34 100 SW8       30.00F FOG
APPLETON       FOG       32  32 100 SW14      29.99F VSB 1/2
OSHKOSH        CLOUDY    32  31  96 SW10      30.02S FOG
FOND DU LAC    CLOUDY    32  30  92 W7        30.04S FOG
$$

WIZ022-050-052-181400-
EAST CENTRAL WISCONSIN

CITY           SKY/WX    TMP DP  RH WIND       PRES   REMARKS
EPHRAIM        NOT AVBL
WASHINGTON ISL NOT AVBL
STURGEON BAY   FOG       31  31 100 SW9       29.98S VSB 1/2
MANITOWOC      NOT AVBL
SHEBOYGAN      CLOUDY    33  31  92 W14       30.04R FOG
$$

LMZ563-521-522-541>543-181400-
LAKESHORE

STATION/POSITION TIME  TEMP    WIND        PRES    VSBY  WAVE
                       AIR SEA DIR/SP/G                  HT/PER
                 (UTC) (F)     (DEG/KT/KT) (MB)    (MI)  (FT/S)
SHEBOYGAN LKSHOR 1200   34     250/ 13/ 15 1017.0R
KEWAUNEE LKSHORE 1230   32     250/  6/ 11 1015.7R
ALGOMA MARINA    1209          260/  2/  5   N/A
NORTHPORT PIER   1240   32      CALM  /  6 1014.2S
SISTER BAY LKSHO 1220   31     230/  8/ 10   N/A
MENOMINEE LKSHOR 1230          200/  8/ 11 1014.0R
$$




USA.gov is the U.S. government's official web portal to all federal, state and local government web resources and services.